NOAA 16 DEB, 41501

Orbit data source: Space-Track

NOAA 16 DEB, 41501 is space debris in SSO originally from a launch on Thu, 21 Sep 2000 UTC launched from the Air Force Western Test Range (AFWTR). Debris objects in space refer to the collection of defunct objects orbiting the Earth. Examples of debris include non-operational satellites, rocket bodies, and fragments generated from explosions, collisions, or faulty payload assembly.

Loading next visibility...
NOAA 16 DEB details
Identifier
41501, 2000-055LZ
Orbit
SSO
Last TLE update1 day ago
Origin
Flag of USNOAA (US)
ManufacturerUnknown
MissionSpacecraft
Bus & MotorUnknown
MassUnknown
Launch date (UTC)
2000-09-21 (24 years ago)
Launch vehicleUnknown
Launch site
Air Force Western Test Range (AFWTR)
Object type
Payload
Rocket body
Debris
Shape & HBRUnknown
Radar Cross SectionSmall (<0.1 m²)

Expand to show TLE details & history

TLE from 1 day ago
0 NOAA 16 DEB
1 41501U 00055LZ  24360.81192578  .00150403  00000-0  16479-1 0  9998
2 41501  98.6767 127.4669 0014075  68.4317 291.8395 14.86846971460592
Epoch: 2024-12-25T19:29Z
Definitive object data (Epoch: 2024-12-25T19:29:10.387Z)
Latitude0.00001°
Longitude100.37331°
Altitude607.154 km
Speed7.558 km/s
True Right ascension08h 29m 52s
True Declination0° 00' 00"
Sunlit
Object was in full shadow at TLE epoch
Visualization TLE readout
Latitude76.0424°
Longitude63.85367°
Altitude610.232 km
Speed7.566 km/s
Apparent Right ascension07h 05m 29s
Apparent Declination22° 27' 09"
Sunlit
Object is in full shadow
Visualization observer readout
Local Sidereal Time19:26:34
Azimuth5.486° NNE
Elevation-27.438°
Doppler factor1
Orbital elements
Apogee altitude614.691 km
Perigee altitude595.034 km
Semi-major axis6,983 km
Eccentricity0.0014075
Inclination98.6767°
RAAN127.4669°
Arg. of periapsis68.4317°
True anomaly291.68969°
Mean anomaly291.8395°
Eccentric anomaly291.7646°
Mean motion3.71946 °/min
BSTAR0.016479
Orbital period96.79 mins
Loading maneuver chart data...
Loading historical data...
Loading historical data...
Loading historical data...
Loading historical data...
Loading historical data...
Loading historical data...
Loading historical data...

NOAA 16 DEB Visibility forecast

Observer location: undefined°, undefined

Span
Click to sort rows by Start time (UTC) header in descending order
Start Az.
Max El. time (UTC)
Max El. Az.
Max El.
End time (UTC)
End Az.
7 mins2024-12-26 21:53:48.065Z1.404° NNE2024-12-26 21:56:48.065Z282.532° WNW40.492°2024-12-26 22:00:48.065Z208.065° SW
6 mins2024-12-27 08:45:48.065Z172.652° S2024-12-27 08:48:48.065Z305.591° NW43.37°2024-12-27 08:51:48.065Z342.316° N
|